www.pogodaiklimat.ru

Погода и климат >> Архив погоды >> Пакистан >> Джелам


ПОГОДА в Джеламе

  • Прогноз погоды в Джеламе
  • Монитор погоды в Джеламе

АРХИВ ПОГОДЫ в Джеламе

Время (UTC), дата Ветер
(напр.,м/с)
 
Видим.   Явления Облачность Т
(С)
Тd
(С)
f
(%)
Тe
(С)
Тes
(С)
Комфортность P
(гПа)
Po
(гПа)
Тmin
(С)
Tmax
(С)
R
(мм)
R24
(мм)
S
(см)
12 14.04 СВ 2 10 км 4/4 1200 м
[Sc]
+33.0 +16.6 38 +36 +38 очень
душно
1007.6 981.9 +34.2
15 14.04 штиль 0 4000 м дым ясно +26.5 +17.9 59 +31 +31 душно 1009.0 1000.0
18 14.04 штиль 0 4000 м дым ясно +24.0 +17.6 67 +28 +28 душно 1010.0 983.3
21 14.04 штиль 0 4000 м дым 3/3 1200 м
[Sc]
+22.0 +17.2 74 +26 +26 душно 1010.2 983.2
00 15.04 штиль 0 4000 м дым 8/3 1200 м
[Sc Ac trans]
+21.5 +16.6 74 +25 +25 комфорт 1008.7 981.9
03 15.04 СЗ 1 4000 м дым 5/1 1200 м
[Sc Ac trans]
+23.0 +16.5 67 +28 +32 душно 1009.6 982.9 +20.6
06 15.04 СЗ 1 10 км 5/0
[Ac trans]
+31.0 +14.8 37 +33 +47 душно 1009.6 983.6
09 15.04 СЗ 1 10 км 5/0
[Ci fib]
+35.0 +16.3 33 +38 +55 опасность
солнечного
удара
1007.0 1000.0
12 15.04 З 1 10 км 5/0
[Ci fib]
+34.5 +15.6 32 +36 +39 душно 1004.0 978.5 +35.6
15 15.04 СЗ 5 10 км 8/3 1200 м
[Sc Ac trans]
+23.5 +18.8 75 +28 +28 душно 1006.5 979.9
18 15.04 ЮЗ 1 4000 м пыльный позёмок 10/4 1200 м
[Sc As op]
+24.0 +13.9 53 +26 +26 жарко 1011.7 985.1
21 15.04 ЮЗ 2 4000 м гроза, ливневой дождь 10/5 900 м
[Cb calv As op]
+22.0 +16.3 70 +26 +26 душно 1009.8 983.0 0.6
00 16.04 ЮЗ 4 4000 м зарница {гроза} 10/5 900 м
[Cb calv As op]
+21.5 +14.8 66 +25 +25 комфорт 1008.6 981.8
03 16.04 ЮЗ 1 10 км 10/10 300 м
[Sc As op]
+22.0 +17.2 74 +26 +26 душно 1009.6 982.9 +21.1
06 16.04 ЮВ 1 10 км 8/3 1200 м
[Sc As op]
+27.5 +15.3 47 +30 +36 жарко 1009.7 983.4
09 16.04 ЮВ 1 10 км 10/4 1200 м
[Sc As op]
+28.5 +17.5 51 +33 +33 очень
душно
1009.1 1000.0
12 16.04 ЮВ 3 10 км 9/5 1200 м
[Sc As op]
+29.0 +16.3 46 +32 +33 душно 1006.8 980.7 +30.0
15 16.04 ЮВ 2 10 км в посл. час дождь 10/5 1200 м
[Sc As op]
+25.0 +16.1 58 +28 +28 жарко 1007.5 1000.0 0.0
18 16.04 В 3 10 км в посл. час гроза {дождь} 10/5 1200 м
[Sc As op]
+20.0 +14.0 68 +22 +22 комфорт 1008.7 981.8 0.2
21 16.04 ЮЗ 2 1000 м дождь {гроза} 10/10 300 м
[Sc As op]
+19.0 +17.4 90 +21 +21 комфорт 1011.5 984.2 4
00 17.04 СВ 1 1000 м дождь 10/5 1200 м
[Sc As op]
+18.0 +16.3 90 +20 +20 1011.0 983.8 5
03 17.04 штиль 0 2000 м слаб. дождь 10/5 1200 м
[Sc As op]
+18.5 +17.7 95 +19 +19 1011.3 984.1 +17.3 3
06 17.04 С 2 500 м сильн. дождь 10/5 1200 м
[Sc As op]
+18.5 +17.7 95 +20 +22 1012.4 985.2 11
09 17.04 В 1 2000 м слаб. дождь 10/5 900 м
[Sc As op]
+19.5 +17.9 90 +23 +23 комфорт 1012.4 1000.0 11
12 17.04 В 1 2000 м слаб. дождь 10/5 900 м
[Sc As op]
+18.5 +17.7 95 +20 +21 1012.4 985.2 +20.0 5
15 17.04 штиль 0 10 км {дождь} 8/4 1200 м
[Sc Ac trans]
+18.0 +16.3 90 +18 +18 1012.8 1000.0 0.0
18 17.04 штиль 0 10 км 5/3 1200 м
[Sc Ac trans]
+17.0 +15.3 90 +17 +17 1014.5 987.2
21 17.04 штиль 0 10 км 6/3 1200 м
[Sc Ac trans]
+16.5 +14.8 90 +16 +16 1014.2 1000.0
00 18.04 штиль 0 10 км 9/4 1200 м
[Sc Ac trans]
+16.5 +14.8 90 +16 +16 1014.6 987.3
03 18.04 штиль 0 10 км 8/3 1200 м
[Sc Ac As]
+17.5 +16.7 95 +17 +20 1015.1 987.9 +15.9
06 18.04 штиль 0 10 км {морось} ясно +23.0 +14.8 60 +27 +51 опасность
солнечного
удара
1013.9 987.2
09 18.04 СВ 1 10 км 3/3 1200 м
[Cb cap]
+27.5 +15.3 47 +30 +43 жарко 1010.5 984.2
12 18.04 СЗ 1 10 км 4/4 900 м
[Sc diur, vesp]
+28.0 +14.9 45 +31 +32 душно 1010.7 984.4 +28.8
15 18.04 С 1 10 км 3/0
[Ac trans]
+23.0 +12.6 52 +26 +26 жарко 1011.4 984.5
18 18.04 штиль 0 4000 м дым ясно +20.0 +14.9 72 +22 +22 комфорт 1012.1 985.1
21 18.04 штиль 0 4000 м дым ясно +18.5 +15.1 81 +19 +19 1011.0 1000.0
00 19.04 штиль 0 4000 м дым ясно +17.0 +14.4 85 +17 +17 1010.4 983.2
03 19.04 штиль 0 4000 м дым ясно +21.5 +15.7 70 +25 +33 комфорт 1010.8 983.9 +16.1
06 19.04 штиль 0 10 км ясно +27.0 +15.7 50 +30 +55 опасность
солнечного
удара
1011.4 985.0
09 19.04 С 1 10 км {ливн. осадки} ясно +30.0 +15.6 42 +33 +52 опасность
солнечного
удара
1009.0 1000.0
12 19.04 штиль 0 10 км 4/0
[Ci fib]
+30.5 +17.2 45 +34 +38 очень
душно
1007.2 981.2 +31.5
15 19.04 штиль 0 10 км 3/0
[Ci fib]
+24.5 +17.3 64 +28 +28 душно 1007.7 981.2
18 19.04 штиль 0 10 км ясно +22.0 +18.0 78 +27 +27 душно 1008.4 981.7
21 19.04 штиль 0 4000 м дым ясно +20.5 +17.3 82 +24 +24 комфорт 1007.5 980.6
00 20.04 штиль 0 4000 м дым ясно +19.0 +15.6 81 +20 +20 1007.1 980.1
03 20.04 штиль 0 10 км 4/0
[Ci fib]
+23.5 +18.0 71 +28 +35 душно 1007.0 980.4 +18.3
06 20.04 ЮВ 1 10 км 5/0
[Ci fib]
+28.0 +17.9 54 +32 +52 опасность
солнечного
удара
1007.1 980.9
09 20.04 ЮВ 1 10 км 1/1 1200 м
[Sc]
+31.5 +17.5 43 +35 +53 опасность
солнечного
удара
1006.3 1000.0
12 20.04 ЮВ 1 10 км 1/1 1200 м
[Sc]
+32.0 +16.2 39 +35 +38 очень
душно
1004.2 978.5 +33.3
15 20.04 штиль 0 10 км ясно +26.0 +18.2 62 +31 +31 очень
душно
1005.3 1000.0
18 20.04 штиль 0 4000 м дым 3/0
[Ac trans]
+23.0 +19.1 79 +29 +29 очень
душно
1006.6 980.0
21 20.04 штиль 0 4000 м дым 3/0
[Ac trans]
+22.0 +18.9 83 +27 +27 душно 1005.6 1000.0
00 21.04 штиль 0 4000 м дым ясно +20.5 +17.3 82 +24 +24 комфорт 1005.4 978.6
03 21.04 штиль 0 4000 м дым ясно +25.0 +19.6 72 +30 +38 душно 1005.3 978.9 +19.8
06 21.04 С 1 4000 м мгла ясно +31.0 +18.8 48 +36 +57 опасность
солнечного
удара
1005.7 979.9
09 21.04 СЗ 1 10 км 1/1
[Sc]
+34.0 +18.0 39 +38 +56 опасность
солнечного
удара
1003.9 1000.0

 

Местоположение метеостанции Джелам (Пакистан): широта 32.93 долгота 73.72 высота над уровнем моря 234 м.

В архиве по умолчанию представлена погода в Джеламе за последнюю неделю. Архивные данные за месяц целиком и за предыдущие месяцы, начиная с января 2011 года, Вы можете получить, выбрав интересующий диапазон дат из раскрывающегося списка и нажав кнопку "Ввод!".


*Определитесь, кто Вы:
робот инопланетянин человек

Внимание! Время в таблицах - всемирное. Для получения местного времени необходимо прибавить поправку, которая равна 5 ч.

Смотрите также архив погоды в соседних городах и на ближайших метеорологических станциях:

Погода в Мангле (Пакистан) (18 км)
Погода в Сиалкот аэропорту (Пакистан) (53 км)
Погода в Гуджрате (Пакистан) (57 км)
Погода в Чаквале (Пакистан) (81 км)
Погода в Сиялкоте (Пакистан) (90 км)
Погода в Гуджранвале (Пакистан) (94 км)
Погода в Хафизабаде (Пакистан) (95 км)
Погода в Исламабаде (Пакистан) (96 км)
Погода в Равалакоте (Пакистан) (103 км)
Погода в Исламабад Сити (Пакистан) (105 км)

Пояснения к столбцам:

Ветер - указаны скорость ветра в м/с - средняя за 10 мин, порывы в срок и между сроками (в фигурных скобках) и направление, откуда дует ветер: С - северный, СВ - северо-восточный, В - восточный, ЮВ - юго-восточный, Ю - южный, ЮЗ - юго-западный, З - западный, СЗ - северо-западный.
Видимость - горизонтальная дальность видимости в метрах или километрах. При видимости от 1 до 10 км при отсутствии осадков обычно наблюдается дымка, при ухудшении видимости до 1 км и менее - туман. В сухую погоду видимость может ухудшаться дымом, пылью или мглою.
Явления - указаны атмосферные явления, наблюдавшиеся в срок или в последний час перед сроком; фигурными скобками обозначены явления, наблюдавшиеся между сроками (за 1-3 часа до срока); квадратными скобками обозначены град или гололедные отложения с указанием их диаметра в мм.
Облачность - указаны через наклонную черту общая и нижняя облачность в баллах и высота нижней границы облаков в метрах; квадратными скобками обозначены формы облаков: Ci - перистые, Cs - перисто-слоистые, Cc - перисто-кучевые, Ac - высококучевые, As - высокослоистые, Sc - слоисто-кучевые, Ns - слоисто-дождевые, Cu - кучевые, Cb - кучево-дождевые. Подробнее классификацию облаков см. в Атласе облаков (PDF).
T - Температура воздуха - температура, измеренная на высоте 2 м над землей.
Td - Температура точки росы - температура, при понижении до которой содержащийся в воздухе водяной пар достигнет насыщения.
f - Относительная влажность воздуха - влажноcть воздуха, измеренная на высоте 2 м над землей.
Te - Эффективная температура - температура, которую ощущает одетый по сезону человек в тени. Характеристика душности погоды. При расчете учитывается влияние влажности воздуха и скорости ветра на теплоощущения человека.
Tes - Эффективная температура на солнце - температура, которую ощущает человек, с поправкой на солнечный нагрев. Характеристика знойности погоды. Зависит от высоты солнца над горизонтом, облачности и скорости ветра. Ночью, в пасмурную погоду, а также при ветре 12 м/с и более поправка равна нулю.
P - Атмосферное давление - приведенное к уровню моря атмосферное давление.
Po - Атмосферное давление - измеренное на уровне метеостанции атмосферное давление.
Tmin - Минимальная температура - минимум температуры воздуха на высоте 2 м над землей.
Tmax - Максимальная температура - максимум температуры воздуха на высоте 2 м над землей.
R - Количество осадков - Количество выпавших осадков за период времени, мм. При наведении курсора мыши на число - период времени, за который выпало указанное количество осадков.
R24 - Количество осадков - Количество выпавших осадков за 24 часа, мм.
S - Снежный покров - Высота снежного покрова, см. При наведении курсора мыши на число - состояние снежного покрова и степень покрытия местности в баллах.